• Em Portugal
  • Lista de países
  • Para 7 dias
  • Temperatura da água
  • Mapas de satélite
  • Mapa do tempo
  • Widgets de tempo
  • user-avatar
    Iniciar Sessão

    Previsão horária em Boa Vista

    Hoje, 25 Fevereiro, Domingo

    Tempo Temperatura Precipitação Vento Pressão Humidade
    00:00 +30°C° 0 mm 2 m/s 753 mmHg 55%
    01:00 +29°C° 0 mm 3 m/s 753 mmHg 57%
    02:00 +29°C° 0 mm 3 m/s 753 mmHg 59%
    03:00 +28°C° 0 mm 3 m/s 753 mmHg 61%
    04:00 +28°C° 0 mm 3 m/s 753 mmHg 64%
    05:00 +28°C° 0 mm 3 m/s 753 mmHg 67%
    06:00 +28°C° 0 mm 3 m/s 753 mmHg 66%
    07:00 +29°C° 0 mm 4 m/s 754 mmHg 65%
    08:00 +29°C° 0 mm 4 m/s 754 mmHg 63%
    09:00 +32°C° 0 mm 4 m/s 754 mmHg 56%
    10:00 +34°C° 0 mm 3 m/s 754 mmHg 49%
    11:00 +36°C° 0 mm 3 m/s 754 mmHg 42%
    12:00 +36°C° 0 mm 3 m/s 753 mmHg 40%
    13:00 +37°C° 0 mm 2 m/s 752 mmHg 39%
    14:00 +37°C° 0 mm 2 m/s 751 mmHg 37%
    15:00 +37°C° 0 mm 2 m/s 751 mmHg 37%
    16:00 +37°C° 0 mm 2 m/s 750 mmHg 38%
    17:00 +37°C° 0 mm 2 m/s 750 mmHg 38%
    18:00 +36°C° 0 mm 2 m/s 750 mmHg 41%
    19:00 +35°C° 0 mm 2 m/s 751 mmHg 45%
    20:00 +32°C° 0 mm 2 m/s 751 mmHg 48%
    21:00 +31°C° 1 mm 2 m/s 752 mmHg 55%
    22:00 +30°C° 1 mm 2 m/s 752 mmHg 62%
    23:00 +29°C° 1 mm 3 m/s 753 mmHg 69%

    Amanhã, 26 Fevereiro, Segunda-feira

    Tempo Temperatura Precipitação Vento Pressão Humidade
    00:00 +28°C° 0,1 mm 3 m/s 753 mmHg 72%
    01:00 +28°C° 0,1 mm 3 m/s 753 mmHg 74%
    02:00 +27°C° 0,1 mm 3 m/s 753 mmHg 77%
    03:00 +27°C° 0 mm 3 m/s 753 mmHg 78%
    04:00 +27°C° 0 mm 3 m/s 753 mmHg 79%
    05:00 +26°C° 0 mm 3 m/s 753 mmHg 81%
    06:00 +27°C° 0 mm 3 m/s 753 mmHg 77%
    07:00 +28°C° 0 mm 3 m/s 754 mmHg 74%
    08:00 +28°C° 0 mm 3 m/s 754 mmHg 71%
    09:00 +30°C° 0 mm 3 m/s 754 mmHg 62%
    10:00 +33°C° 0 mm 3 m/s 755 mmHg 53%
    11:00 +35°C° 0 mm 3 m/s 755 mmHg 44%
    12:00 +36°C° 0 mm 3 m/s 753 mmHg 41%
    13:00 +37°C° 0 mm 3 m/s 752 mmHg 38%
    14:00 +38°C° 0 mm 2 m/s 751 mmHg 35%
    15:00 +38°C° 0 mm 2 m/s 750 mmHg 35%
    16:00 +38°C° 0 mm 2 m/s 750 mmHg 35%
    17:00 +37°C° 0 mm 1 m/s 749 mmHg 34%
    18:00 +35°C° 0 mm 1 m/s 750 mmHg 38%
    19:00 +34°C° 0 mm 1 m/s 750 mmHg 42%
    20:00 +30°C° 0 mm 0 m/s 751 mmHg 46%
    21:00 +32°C° 0 mm 1 m/s 751 mmHg 47%
    22:00 +31°C° 0 mm 2 m/s 752 mmHg 48%
    23:00 +31°C° 0 mm 2 m/s 753 mmHg 49%

    Depois de amanhã, 27 Fevereiro, Terça-feira

    Tempo Temperatura Precipitação Vento Pressão Humidade
    00:00 +31°C° 0 mm 2 m/s 752 mmHg 52%
    01:00 +30°C° 0 mm 3 m/s 752 mmHg 55%
    02:00 +30°C° 0 mm 3 m/s 752 mmHg 57%
    03:00 +29°C° 0 mm 3 m/s 752 mmHg 61%
    04:00 +28°C° 0 mm 2 m/s 752 mmHg 64%
    05:00 +28°C° 0 mm 2 m/s 752 mmHg 67%
    06:00 +28°C° 0 mm 3 m/s 753 mmHg 65%
    07:00 +29°C° 0 mm 3 m/s 753 mmHg 64%
    08:00 +29°C° 0 mm 4 m/s 754 mmHg 63%
    09:00 +32°C° 0 mm 4 m/s 754 mmHg 56%
    10:00 +34°C° 0 mm 4 m/s 754 mmHg 50%
    11:00 +36°C° 0 mm 3 m/s 754 mmHg 43%
    12:00 +36°C° 0 mm 3 m/s 752 mmHg 42%
    13:00 +37°C° 0 mm 2 m/s 751 mmHg 40%
    14:00 +37°C° 0 mm 2 m/s 750 mmHg 38%
    15:00 +37°C° 0 mm 2 m/s 750 mmHg 39%
    16:00 +37°C° 0 mm 2 m/s 749 mmHg 39%
    17:00 +37°C° 0 mm 2 m/s 749 mmHg 39%
    18:00 +36°C° 0 mm 2 m/s 749 mmHg 42%
    19:00 +35°C° 0 mm 2 m/s 750 mmHg 45%
    20:00 +32°C° 0 mm 2 m/s 751 mmHg 48%
    21:00 +32°C° 0 mm 2 m/s 751 mmHg 50%
    22:00 +31°C° 0 mm 3 m/s 751 mmHg 53%
    23:00 +31°C° 0 mm 3 m/s 752 mmHg 55%

    28 Fevereiro, Quarta-feira

    Tempo Temperatura Precipitação Vento Pressão Humidade
    00:00 +30°C° 0 mm 3 m/s 752 mmHg 57%
    01:00 +30°C° 0 mm 3 m/s 751 mmHg 60%
    02:00 +29°C° 0 mm 3 m/s 751 mmHg 62%
    03:00 +28°C° 0 mm 3 m/s 751 mmHg 63%
    04:00 +28°C° 0 mm 3 m/s 751 mmHg 64%
    05:00 +28°C° 0 mm 3 m/s 751 mmHg 65%
    06:00 +28°C° 0 mm 3 m/s 752 mmHg 63%
    07:00 +29°C° 0 mm 3 m/s 752 mmHg 61%
    08:00 +29°C° 0 mm 4 m/s 753 mmHg 60%
    09:00 +32°C° 0 mm 4 m/s 753 mmHg 53%
    10:00 +34°C° 0 mm 4 m/s 753 mmHg 46%
    11:00 +36°C° 0 mm 3 m/s 753 mmHg 40%
    12:00 +37°C° 0 mm 3 m/s 752 mmHg 37%
    13:00 +38°C° 0 mm 3 m/s 750 mmHg 35%
    14:00 +39°C° 0 mm 2 m/s 749 mmHg 32%
    15:00 +39°C° 0 mm 2 m/s 749 mmHg 33%
    16:00 +39°C° 0 mm 2 m/s 749 mmHg 34%
    17:00 +38°C° 0 mm 2 m/s 748 mmHg 34%
    18:00 +37°C° 0 mm 2 m/s 749 mmHg 37%
    19:00 +36°C° 0 mm 2 m/s 750 mmHg 41%
    20:00 +34°C° 0 mm 2 m/s 750 mmHg 44%
    21:00 +34°C° 0 mm 3 m/s 751 mmHg 46%
    22:00 +33°C° 0 mm 3 m/s 751 mmHg 48%
    23:00 +33°C° 0 mm 4 m/s 752 mmHg 50%

    1 Março, Quinta-feira

    Tempo Temperatura Precipitação Vento Pressão Humidade
    00:00 +32°C° 0 mm 4 m/s 751 mmHg 53%
    01:00 +30°C° 0 mm 4 m/s 751 mmHg 57%
    02:00 +29°C° 0 mm 4 m/s 751 mmHg 60%
    03:00 +29°C° 0 mm 3 m/s 751 mmHg 61%
    04:00 +29°C° 0 mm 3 m/s 751 mmHg 63%
    05:00 +28°C° 0 mm 3 m/s 751 mmHg 64%
    06:00 +29°C° 0 mm 4 m/s 752 mmHg 62%
    07:00 +29°C° 0 mm 4 m/s 753 mmHg 60%
    08:00 +30°C° 0 mm 4 m/s 754 mmHg 59%
    09:00 +33°C° 0 mm 4 m/s 754 mmHg 52%
    10:00 +35°C° 0 mm 4 m/s 753 mmHg 45%
    11:00 +37°C° 0 mm 4 m/s 753 mmHg 39%
    12:00 +38°C° 0 mm 4 m/s 752 mmHg 36%
    13:00 +39°C° 0 mm 3 m/s 751 mmHg 33%
    14:00 +40°C° 0 mm 3 m/s 750 mmHg 30%
    15:00 +40°C° 0 mm 3 m/s 749 mmHg 29%
    16:00 +40°C° 0 mm 3 m/s 749 mmHg 29%
    17:00 +40°C° 0 mm 3 m/s 749 mmHg 29%
    18:00 +38°C° 0 mm 3 m/s 749 mmHg 32%
    19:00 +37°C° 0 mm 3 m/s 750 mmHg 36%
    20:00 +35°C° 0 mm 3 m/s 751 mmHg 40%
    21:00 +34°C° 0 mm 3 m/s 751 mmHg 41%
    22:00 +34°C° 0 mm 4 m/s 752 mmHg 43%
    23:00 +33°C° 0 mm 4 m/s 752 mmHg 45%

    2 Março, Sexta-feira

    Tempo Temperatura Precipitação Vento Pressão Humidade
    00:00 +33°C° 0 mm 4 m/s 752 mmHg 46%
    01:00 +32°C° 0 mm 4 m/s 752 mmHg 48%
    02:00 +32°C° 0 mm 4 m/s 751 mmHg 49%
    03:00 +30°C° 0 mm 4 m/s 751 mmHg 53%
    04:00 +29°C° 0 mm 4 m/s 752 mmHg 56%
    05:00 +29°C° 0 mm 4 m/s 752 mmHg 60%
    06:00 +29°C° 0 mm 4 m/s 752 mmHg 59%
    07:00 +29°C° 0 mm 5 m/s 753 mmHg 58%
    08:00 +29°C° 0 mm 5 m/s 754 mmHg 57%
    09:00 +32°C° 0 mm 5 m/s 754 mmHg 50%
    10:00 +34°C° 0 mm 5 m/s 754 mmHg 44%
    11:00 +36°C° 0 mm 5 m/s 754 mmHg 37%
    12:00 +37°C° 0 mm 4 m/s 752 mmHg 34%
    13:00 +38°C° 0 mm 4 m/s 751 mmHg 32%
    14:00 +40°C° 0 mm 3 m/s 750 mmHg 29%
    15:00 +39°C° 0 mm 3 m/s 749 mmHg 29%
    16:00 +39°C° 0 mm 3 m/s 749 mmHg 29%
    17:00 +39°C° 0 mm 2 m/s 749 mmHg 29%
    18:00 +38°C° 0 mm 2 m/s 749 mmHg 32%
    19:00 +37°C° 0 mm 2 m/s 750 mmHg 35%
    20:00 +35°C° 0 mm 2 m/s 750 mmHg 39%
    21:00 +34°C° 0,2 mm 3 m/s 751 mmHg 45%
    22:00 +33°C° 0,2 mm 3 m/s 751 mmHg 51%
    23:00 +32°C° 0,2 mm 4 m/s 752 mmHg 57%
    Mostrar mais